Valparaiso, FL

3:57 AM CST on February 21, 2018 (GMT -0600)
Eglin Air Force Base

Weather History for KVPS - January, 2014

Change the Weather History Date:

Thursday, January 2, 2014

  Actual Average Record
Temperature  
Mean Temperature 48 °F -  
Max Temperature 59 °F 62 °F 78 °F (1975)
Min Temperature 36 °F 40 °F 20 °F (1964)
Degree Days  
Heating Degree Days 17    
Moisture  
Dew Point 51 °F    
Average Humidity 93    
Maximum Humidity 100    
Minimum Humidity 66    
Precipitation  
Precipitation 0.10 in - - ()
Sea Level Pressure  
Sea Level Pressure 29.99 in    
Wind  
Wind Speed 8 mph (NNE)    
Max Wind Speed 23 mph    
Max Gust Speed 31 mph    
Visibility 8 miles    
Events Rain    
Averages and records for this station are not official NWS values.
T = Trace of Precipitation, MM = Missing Value Source: NWS Daily Summary

Daily Weather History Graph

Daily Weather History Graph

Search for Another Location

Airport or City:

Trip Planner

Search our weather history database for the weather conditions in past years. The results will help you decide how hot, cold, wet, or windy it might be!

Date:

Astronomy

Jan. 02, 2014 Rise Set
Actual Time 6:43 AM CST 4:57 PM CST
Civil Twilight 6:16 AM CST 5:23 PM CST
Nautical Twilight 5:47 AM CST 5:53 PM CST
Astronomical Twilight 5:17 AM CST 6:22 PM CST
Moon 7:31 AM CST (1/2) 6:44 PM CST (1/2)
Length of Visible Light 11h 06m
Length of Day
10h 13m
Waxing Crescent, 3% of the Moon is Illuminated
Jan 2
Waxing Crescent
Jan 7
First Quarter
Jan 15
Full
Jan 23
Last Quarter
Jan 30
New

Hourly Weather History & Observations

Time (CST) Temp. Windchill Dew Point Humidity Pressure Visibility Wind Dir Wind Speed Gust Speed Precip Events Conditions
12:52 AM 51.8 °F - 51.8 °F 100% 30.04 in 10.0 mi East 5.8 mph - N/A   Overcast
12:55 AM 52.5 °F - 52.5 °F 100% 30.06 in 10.0 mi ESE 5.8 mph - 0.00 in   Overcast
1:11 AM 53.6 °F - 53.6 °F 100% 30.03 in 10.0 mi East 6.9 mph - N/A   Overcast
1:39 AM 53.6 °F - 53.6 °F 100% 30.04 in 7.0 mi NNE 5.8 mph - N/A Rain Light Rain
1:55 AM 52.9 °F - 52.9 °F 100% 30.06 in 7.0 mi North 6.9 mph - 0.00 in Rain Light Rain
2:35 AM 53.6 °F - 53.6 °F 100% 30.02 in 7.0 mi NNE 8.1 mph - N/A   Overcast
2:55 AM 52.9 °F - 52.9 °F 100% 30.03 in 7.0 mi ENE 8.1 mph - 0.01 in   Overcast
3:29 AM 53.6 °F - 53.6 °F 100% 29.99 in 7.0 mi East 5.8 mph - N/A   Overcast
3:55 AM 53.2 °F - 53.2 °F 100% 30.01 in 7.0 mi NE 5.8 mph - N/A   Overcast
4:43 AM 53.6 °F - 53.6 °F 100% 29.96 in 6.0 mi East 5.8 mph - N/A   Overcast
4:55 AM 53.2 °F - 53.2 °F 100% 29.98 in 6.0 mi East 4.6 mph - N/A   Overcast
5:15 AM 53.6 °F - 53.6 °F 100% 29.95 in 6.0 mi East 4.6 mph - N/A Rain Light Rain
5:55 AM 53.6 °F - 53.6 °F 100% 29.96 in 6.0 mi NNE 4.6 mph - 0.00 in Rain Light Rain
6:18 AM 53.6 °F - 53.6 °F 100% 29.95 in 6.0 mi NE 3.5 mph - N/A   Overcast
6:49 AM 53.6 °F - 53.6 °F 100% 29.93 in 7.0 mi East 4.6 mph - N/A   Mostly Cloudy
6:55 AM 53.6 °F - 53.6 °F 100% 29.95 in 7.0 mi East 5.8 mph - 0.00 in   Mostly Cloudy
7:16 AM 53.6 °F - 53.6 °F 100% 29.93 in 10.0 mi ESE 4.6 mph - N/A   Overcast
7:38 AM 53.6 °F - 53.6 °F 100% 29.92 in 7.0 mi ENE 3.5 mph - N/A   Overcast
7:46 AM 53.6 °F - 53.6 °F 100% 29.93 in 7.0 mi East 2.3 mph - N/A Rain Light Rain
7:55 AM 54.5 °F - 54.5 °F 100% 29.96 in 7.0 mi East 2.3 mph - 0.00 in Rain Light Rain
8:55 AM 54.7 °F - 54.7 °F 100% 29.96 in 4.0 mi SE 5.8 mph - 0.01 in Rain Light Rain
9:12 AM 55.4 °F - 55.4 °F 100% 29.95 in 3.0 mi ESE 5.8 mph - N/A Rain Light Rain
9:23 AM 55.4 °F - 55.4 °F 100% 29.95 in 3.0 mi SE 5.8 mph - N/A Rain Light Rain
9:55 AM 55.0 °F - 55.0 °F 100% 29.96 in 3.0 mi SE 5.8 mph - 0.01 in Rain Light Rain
10:15 AM 55.4 °F - 55.4 °F 100% 29.93 in 2.0 mi SE 2.3 mph - N/A Rain Light Rain
10:21 AM 55.4 °F - 55.4 °F 100% 29.96 in 4.0 mi NW 16.1 mph 19.6 mph N/A Rain Light Rain
10:32 AM 55.4 °F - 55.4 °F 100% 29.96 in 6.0 mi NNW 12.7 mph 20.7 mph N/A Rain Light Rain
10:36 AM 57.2 °F - 57.2 °F 100% 29.95 in 10.0 mi NW 8.1 mph 20.7 mph N/A Rain Light Rain
10:40 AM 57.2 °F - 57.2 °F 100% 29.95 in 6.0 mi NNW 6.9 mph - N/A Rain Light Rain
10:47 AM 57.2 °F - 57.2 °F 100% 29.95 in 5.0 mi NW 8.1 mph - N/A Rain Light Rain
10:55 AM 57.4 °F - 57.4 °F 100% 29.95 in 5.0 mi NW 8.1 mph - 0.05 in Rain Light Rain
11:03 AM 57.2 °F - 57.2 °F 100% 29.93 in 2.0 mi WNW 8.1 mph - N/A Rain Rain
11:10 AM 57.2 °F - 57.2 °F 100% 29.93 in 3.0 mi WNW 5.8 mph - N/A Rain Light Rain
11:45 AM 59.0 °F - 59.0 °F 100% 29.91 in 10.0 mi NW 8.1 mph - N/A   Overcast
11:49 AM 59.0 °F - 59.0 °F 100% 29.91 in 10.0 mi NW 9.2 mph - N/A   Mostly Cloudy
11:55 AM 59.7 °F - 59.7 °F 100% 29.93 in 10.0 mi NW 11.5 mph - 0.02 in   Overcast
12:55 PM 58.8 °F - 56.3 °F 91% 29.92 in 10.0 mi NNW 12.7 mph - N/A   Mostly Cloudy
1:01 PM 59.0 °F - 55.4 °F 88% 29.91 in 10.0 mi NW 15.0 mph - N/A   Mostly Cloudy
1:10 PM 59.0 °F - 55.4 °F 88% 29.90 in 10.0 mi NNW 11.5 mph - N/A   Overcast
1:55 PM 58.6 °F - 54.0 °F 84% 29.92 in 10.0 mi NNW 12.7 mph - N/A   Overcast
2:55 PM 58.3 °F - 51.8 °F 79% 29.92 in 10.0 mi NNW 13.8 mph - N/A   Overcast
3:55 PM 57.9 °F - 48.6 °F 71% 29.96 in 10.0 mi NNW 18.4 mph 25.3 mph N/A   Mostly Cloudy
4:55 PM 53.2 °F - 43.5 °F 70% 30.03 in 10.0 mi NNW 19.6 mph 26.5 mph N/A   Mostly Cloudy
5:55 PM 49.3 °F - 40.3 °F 71% 30.07 in 10.0 mi NNW 16.1 mph 25.3 mph N/A   Scattered Clouds
6:55 PM 45.1 °F 38.4 °F 36.3 °F 71% 30.12 in 10.0 mi North 15.0 mph - N/A   Partly Cloudy
7:55 PM 43.0 °F 34.5 °F 34.5 °F 72% 30.14 in 10.0 mi North 19.6 mph 27.6 mph N/A   Scattered Clouds
8:55 PM 41.0 °F 31.1 °F 32.0 °F 70% 30.18 in 10.0 mi North 23.0 mph 27.6 mph N/A   Scattered Clouds
9:55 PM 39.2 °F 29.0 °F 30.4 °F 71% 30.21 in 10.0 mi North 21.9 mph 31.1 mph N/A   Scattered Clouds
10:55 PM 37.4 °F 28.5 °F 28.4 °F 70% 30.25 in 10.0 mi NNW 15.0 mph 21.9 mph N/A   Scattered Clouds
11:55 PM 36.1 °F 25.2 °F 25.9 °F 66% 30.24 in 10.0 mi North 20.7 mph 29.9 mph N/A   Scattered Clouds